Year,Month,Day,Hour,Minute,Value (Times are PST for windgust in km/hr)
2016,02,04,00,00,3.20
2016,02,04,00,01,3.20
2016,02,04,00,02,3.20
2016,02,04,00,03,1.60
2016,02,04,00,04,3.20
2016,02,04,00,05,3.20
2016,02,04,00,06,3.20
2016,02,04,00,07,3.20
2016,02,04,00,08,4.80
2016,02,04,00,09,8.10
2016,02,04,00,10,9.60
2016,02,04,00,11,11.30
2016,02,04,00,12,8.10
2016,02,04,00,13,9.60
2016,02,04,00,14,11.30
2016,02,04,00,15,8.10
2016,02,04,00,16,8.10
2016,02,04,00,17,9.60
2016,02,04,00,18,9.60
2016,02,04,00,19,11.30
2016,02,04,00,20,9.60
2016,02,04,00,21,6.40
2016,02,04,00,22,11.30
2016,02,04,00,23,6.40
2016,02,04,00,24,6.40
2016,02,04,00,25,4.80
2016,02,04,00,26,4.80
2016,02,04,00,27,8.10
2016,02,04,00,28,6.40
2016,02,04,00,29,6.40
2016,02,04,00,30,4.80
2016,02,04,00,31,4.80
2016,02,04,00,32,4.80
2016,02,04,00,33,3.20
2016,02,04,00,34,3.20
2016,02,04,00,35,3.20
2016,02,04,00,36,3.20
2016,02,04,00,37,1.60
2016,02,04,00,38,4.80
2016,02,04,00,39,4.80
2016,02,04,00,40,6.40
2016,02,04,00,41,4.80
2016,02,04,00,42,3.20
2016,02,04,00,43,3.20
2016,02,04,00,44,4.80
2016,02,04,00,45,4.80
2016,02,04,00,46,4.80
2016,02,04,00,47,6.40
2016,02,04,00,48,6.40
2016,02,04,00,49,6.40
2016,02,04,00,50,4.80
2016,02,04,00,51,4.80
2016,02,04,00,52,4.80
2016,02,04,00,53,3.20
2016,02,04,00,54,3.20
2016,02,04,00,55,3.20
2016,02,04,00,56,3.20
2016,02,04,00,57,3.20
2016,02,04,00,58,4.80
2016,02,04,00,59,3.20
2016,02,04,01,00,3.20
2016,02,04,01,01,4.80
2016,02,04,01,02,3.20
2016,02,04,01,03,4.80
2016,02,04,01,04,6.40
2016,02,04,01,05,6.40
2016,02,04,01,06,6.40
2016,02,04,01,07,6.40
2016,02,04,01,08,4.80
2016,02,04,01,09,3.20
2016,02,04,01,10,3.20
2016,02,04,01,11,3.20
2016,02,04,01,12,4.80
2016,02,04,01,13,3.20
2016,02,04,01,14,3.20
2016,02,04,01,15,3.20
2016,02,04,01,16,4.80
2016,02,04,01,17,4.80
2016,02,04,01,18,4.80
2016,02,04,01,19,4.80
2016,02,04,01,20,3.20
2016,02,04,01,21,1.60
2016,02,04,01,22,1.60
2016,02,04,01,23,1.60
2016,02,04,01,24,3.20
2016,02,04,01,25,3.20
2016,02,04,01,26,1.60
2016,02,04,01,27,3.20
2016,02,04,01,28,1.60
2016,02,04,01,29,3.20
2016,02,04,01,30,3.20
2016,02,04,01,31,4.80
2016,02,04,01,32,4.80
2016,02,04,01,33,4.80
2016,02,04,01,34,4.80
2016,02,04,01,35,4.80
2016,02,04,01,36,3.20
2016,02,04,01,37,1.60
2016,02,04,01,38,1.60
2016,02,04,01,39,3.20
2016,02,04,01,40,3.20
2016,02,04,01,41,3.20
2016,02,04,01,42,4.80
2016,02,04,01,43,4.80
2016,02,04,01,44,4.80
2016,02,04,01,45,4.80
2016,02,04,01,46,4.80
2016,02,04,01,47,4.80
2016,02,04,01,48,4.80
2016,02,04,01,49,4.80
2016,02,04,01,50,4.80
2016,02,04,01,51,4.80
2016,02,04,01,52,4.80
2016,02,04,01,53,3.20
2016,02,04,01,54,4.80
2016,02,04,01,55,4.80
2016,02,04,01,56,4.80
2016,02,04,01,57,4.80
2016,02,04,01,58,4.80
2016,02,04,01,59,4.80
2016,02,04,02,00,4.80
2016,02,04,02,01,4.80
2016,02,04,02,02,6.40
2016,02,04,02,03,4.80
2016,02,04,02,04,4.80
2016,02,04,02,05,4.80
2016,02,04,02,06,4.80
2016,02,04,02,07,4.80
2016,02,04,02,08,1.60
2016,02,04,02,09,3.20
2016,02,04,02,10,4.80
2016,02,04,02,11,4.80
2016,02,04,02,12,4.80
2016,02,04,02,13,4.80
2016,02,04,02,14,4.80
2016,02,04,02,15,3.20
2016,02,04,02,16,4.80
2016,02,04,02,17,4.80
2016,02,04,02,18,6.40
2016,02,04,02,19,4.80
2016,02,04,02,20,4.80
2016,02,04,02,21,4.80
2016,02,04,02,22,3.20
2016,02,04,02,23,3.20
2016,02,04,02,24,4.80
2016,02,04,02,25,3.20
2016,02,04,02,26,3.20
2016,02,04,02,27,4.80
2016,02,04,02,28,4.80
2016,02,04,02,29,4.80
2016,02,04,02,30,4.80
2016,02,04,02,31,4.80
2016,02,04,02,32,3.20
2016,02,04,02,33,4.80
2016,02,04,02,34,4.80
2016,02,04,02,35,4.80
2016,02,04,02,36,4.80
2016,02,04,02,37,3.20
2016,02,04,02,38,4.80
2016,02,04,02,39,4.80
2016,02,04,02,40,4.80
2016,02,04,02,41,4.80
2016,02,04,02,42,4.80
2016,02,04,02,43,4.80
2016,02,04,02,44,4.80
2016,02,04,02,45,4.80
2016,02,04,02,46,4.80
2016,02,04,02,47,4.80
2016,02,04,02,48,4.80
2016,02,04,02,49,4.80
2016,02,04,02,50,3.20
2016,02,04,02,51,4.80
2016,02,04,02,52,4.80
2016,02,04,02,53,4.80
2016,02,04,02,54,4.80
2016,02,04,02,55,3.20
2016,02,04,02,56,3.20
2016,02,04,04,52,4.80
2016,02,04,04,53,6.40
2016,02,04,04,54,4.80
2016,02,04,04,55,4.80
2016,02,04,04,56,4.80
2016,02,04,04,57,6.40
2016,02,04,04,58,6.40
2016,02,04,04,59,6.40
2016,02,04,05,00,6.40
2016,02,04,05,01,4.80
2016,02,04,05,02,4.80
2016,02,04,05,03,3.20
2016,02,04,05,04,3.20
2016,02,04,05,05,1.60
2016,02,04,05,06,1.60
2016,02,04,05,07,1.60
2016,02,04,05,08,1.60
2016,02,04,05,09,3.20
2016,02,04,05,10,4.80
2016,02,04,05,11,4.80
2016,02,04,05,12,6.40
2016,02,04,05,13,4.80
2016,02,04,05,14,4.80
2016,02,04,05,15,6.40
2016,02,04,05,16,4.80
2016,02,04,05,17,4.80
2016,02,04,05,18,4.80
2016,02,04,05,19,4.80
2016,02,04,05,20,3.20
2016,02,04,05,21,4.80
2016,02,04,05,22,3.20
2016,02,04,05,23,4.80
2016,02,04,05,24,6.40
2016,02,04,05,25,4.80
2016,02,04,05,26,4.80
2016,02,04,05,27,6.40
2016,02,04,05,28,6.40
2016,02,04,05,29,6.40
2016,02,04,05,30,4.80
2016,02,04,05,31,4.80
2016,02,04,05,32,4.80
2016,02,04,05,33,4.80
2016,02,04,05,34,4.80
2016,02,04,05,35,4.80
2016,02,04,05,36,4.80
2016,02,04,05,37,4.80
2016,02,04,05,38,4.80
2016,02,04,05,39,3.20
2016,02,04,05,40,4.80
2016,02,04,05,41,3.20
2016,02,04,05,42,3.20
2016,02,04,05,43,3.20
2016,02,04,05,44,3.20
2016,02,04,05,45,3.20
2016,02,04,05,46,3.20
2016,02,04,05,47,1.60
2016,02,04,05,48,3.20
2016,02,04,05,49,1.60
2016,02,04,05,50,1.60
2016,02,04,05,51,1.60
2016,02,04,05,52,3.20
2016,02,04,05,53,4.80
2016,02,04,05,54,4.80
2016,02,04,05,55,4.80
2016,02,04,05,56,4.80
2016,02,04,05,57,4.80
2016,02,04,05,58,4.80
2016,02,04,05,59,4.80
2016,02,04,06,00,4.80
2016,02,04,06,01,4.80
2016,02,04,06,02,4.80
2016,02,04,06,03,4.80
2016,02,04,06,04,4.80
2016,02,04,06,05,4.80
2016,02,04,06,06,4.80
2016,02,04,06,07,3.20
2016,02,04,06,08,3.20
2016,02,04,06,09,1.60
2016,02,04,06,10,1.60
2016,02,04,06,12,1.60
2016,02,04,06,17,1.60
2016,02,04,06,18,4.80
2016,02,04,06,19,4.80
2016,02,04,06,20,4.80
2016,02,04,06,21,4.80
2016,02,04,06,22,4.80
2016,02,04,06,23,6.40
2016,02,04,06,24,4.80
2016,02,04,06,25,4.80
2016,02,04,06,26,4.80
2016,02,04,06,27,4.80
2016,02,04,06,28,3.20
2016,02,04,06,29,4.80
2016,02,04,06,30,4.80
2016,02,04,06,31,4.80
2016,02,04,06,32,4.80
2016,02,04,06,33,3.20
2016,02,04,06,34,3.20
2016,02,04,06,35,4.80
2016,02,04,06,36,4.80
2016,02,04,06,37,6.40
2016,02,04,06,38,6.40
2016,02,04,06,39,6.40
2016,02,04,06,40,8.10
2016,02,04,06,41,8.10
2016,02,04,06,42,8.10
2016,02,04,06,43,8.10
2016,02,04,06,44,6.40
2016,02,04,06,45,6.40
2016,02,04,06,46,6.40
2016,02,04,06,47,6.40
2016,02,04,06,48,6.40
2016,02,04,06,49,6.40
2016,02,04,06,50,6.40
2016,02,04,06,51,6.40
2016,02,04,06,52,6.40
2016,02,04,06,53,6.40
2016,02,04,06,54,6.40
2016,02,04,06,55,4.80
2016,02,04,06,56,4.80
2016,02,04,06,57,4.80
2016,02,04,06,58,4.80
2016,02,04,06,59,4.80
2016,02,04,07,00,4.80
2016,02,04,07,01,4.80
2016,02,04,07,02,4.80
2016,02,04,07,03,4.80
2016,02,04,07,04,6.40
2016,02,04,07,05,6.40
2016,02,04,07,06,6.40
2016,02,04,07,07,6.40
2016,02,04,07,08,6.40
2016,02,04,07,09,6.40
2016,02,04,07,10,6.40
2016,02,04,07,11,6.40
2016,02,04,07,12,4.80
2016,02,04,07,13,4.80
2016,02,04,07,14,4.80
2016,02,04,07,15,4.80
2016,02,04,07,16,4.80
2016,02,04,07,17,4.80
2016,02,04,07,18,4.80
2016,02,04,07,19,4.80
2016,02,04,07,20,4.80
2016,02,04,07,21,4.80
2016,02,04,07,22,4.80
2016,02,04,07,23,4.80
2016,02,04,07,24,3.20
2016,02,04,07,25,3.20
2016,02,04,07,26,4.80
2016,02,04,07,27,4.80
2016,02,04,07,28,4.80
2016,02,04,07,29,6.40
2016,02,04,07,30,6.40
2016,02,04,07,31,6.40
2016,02,04,07,32,4.80
2016,02,04,07,33,3.20
2016,02,04,07,34,3.20
2016,02,04,07,35,3.20
2016,02,04,07,36,3.20
2016,02,04,07,37,3.20
2016,02,04,07,38,4.80
2016,02,04,07,39,6.40
2016,02,04,07,40,6.40
2016,02,04,07,41,6.40
2016,02,04,07,42,6.40
2016,02,04,07,43,6.40
2016,02,04,07,44,6.40
2016,02,04,07,45,6.40
2016,02,04,07,46,4.80
2016,02,04,07,47,4.80
2016,02,04,07,48,4.80
2016,02,04,07,49,3.20
2016,02,04,07,50,3.20
2016,02,04,07,51,3.20
2016,02,04,07,52,3.20
2016,02,04,07,53,3.20
2016,02,04,07,54,3.20
2016,02,04,07,55,3.20
2016,02,04,07,56,3.20
2016,02,04,07,57,3.20
2016,02,04,07,58,3.20
2016,02,04,07,59,3.20
2016,02,04,08,00,3.20
2016,02,04,08,01,3.20
2016,02,04,08,02,3.20
2016,02,04,08,03,1.60
2016,02,04,08,04,1.60
2016,02,04,08,05,1.60
2016,02,04,08,06,1.60
2016,02,04,08,07,1.60
2016,02,04,08,08,1.60
2016,02,04,08,09,1.60
2016,02,04,08,10,1.60
2016,02,04,08,11,1.60
2016,02,04,08,12,1.60
2016,02,04,08,13,3.20
2016,02,04,08,14,3.20
2016,02,04,08,15,3.20
2016,02,04,08,16,3.20
2016,02,04,08,17,3.20
2016,02,04,08,18,3.20
2016,02,04,08,19,3.20
2016,02,04,08,20,1.60
2016,02,04,08,21,1.60
2016,02,04,08,22,1.60
2016,02,04,08,24,1.60
2016,02,04,08,25,3.20
2016,02,04,08,26,4.80
2016,02,04,08,27,4.80
2016,02,04,08,28,4.80
2016,02,04,08,29,4.80
2016,02,04,08,30,4.80
2016,02,04,08,31,3.20
2016,02,04,08,32,1.60
2016,02,04,08,35,1.60
2016,02,04,08,36,1.60
2016,02,04,08,37,3.20
2016,02,04,08,38,1.60
2016,02,04,08,39,3.20
2016,02,04,08,41,1.60
2016,02,04,08,42,3.20
2016,02,04,08,43,3.20
2016,02,04,08,47,1.60
2016,02,04,08,48,3.20
2016,02,04,08,49,4.80
2016,02,04,08,50,4.80
2016,02,04,08,51,4.80
2016,02,04,08,52,3.20
2016,02,04,08,53,3.20
2016,02,04,08,54,3.20
2016,02,04,08,55,4.80
2016,02,04,08,56,4.80
2016,02,04,08,57,6.40
2016,02,04,08,58,4.80
2016,02,04,08,59,3.20
2016,02,04,09,00,3.20
2016,02,04,09,01,3.20
2016,02,04,09,02,4.80
2016,02,04,09,03,4.80
2016,02,04,09,04,4.80
2016,02,04,09,05,4.80
2016,02,04,09,06,6.40
2016,02,04,09,07,6.40
2016,02,04,09,08,4.80
2016,02,04,09,09,4.80
2016,02,04,09,10,4.80
2016,02,04,09,11,4.80
2016,02,04,09,12,6.40
2016,02,04,09,13,6.40
2016,02,04,09,14,8.10
2016,02,04,09,15,6.40
2016,02,04,09,16,4.80
2016,02,04,09,17,1.60
2016,02,04,09,18,3.20
2016,02,04,09,19,3.20
2016,02,04,09,20,4.80
2016,02,04,09,21,3.20
2016,02,04,09,22,1.60
2016,02,04,09,23,1.60
2016,02,04,09,24,4.80
2016,02,04,09,25,6.40
2016,02,04,09,26,4.80
2016,02,04,09,27,6.40
2016,02,04,09,28,6.40
2016,02,04,09,29,6.40
2016,02,04,09,30,4.80
2016,02,04,09,31,4.80
2016,02,04,09,32,4.80
2016,02,04,09,33,4.80
2016,02,04,09,34,4.80
2016,02,04,09,35,4.80
2016,02,04,09,36,4.80
2016,02,04,09,37,6.40
2016,02,04,09,38,6.40
2016,02,04,09,39,6.40
2016,02,04,09,40,6.40
2016,02,04,09,41,4.80
2016,02,04,09,42,6.40
2016,02,04,09,43,6.40
2016,02,04,09,44,6.40
2016,02,04,09,45,8.10
2016,02,04,09,46,8.10
2016,02,04,09,47,9.60
2016,02,04,09,48,9.60
2016,02,04,09,49,8.10
2016,02,04,09,50,8.10
2016,02,04,09,51,8.10
2016,02,04,09,52,8.10
2016,02,04,09,53,8.10
2016,02,04,09,54,8.10
2016,02,04,09,55,8.10
2016,02,04,09,56,8.10
2016,02,04,09,57,6.40
2016,02,04,09,58,6.40
2016,02,04,09,59,6.40
2016,02,04,10,00,6.40
2016,02,04,10,01,4.80
2016,02,04,10,02,6.40
2016,02,04,10,03,6.40
2016,02,04,10,04,4.80
2016,02,04,10,05,4.80
2016,02,04,10,06,3.20
2016,02,04,10,07,3.20
2016,02,04,10,08,1.60
2016,02,04,10,09,1.60
2016,02,04,10,10,3.20
2016,02,04,10,11,1.60
2016,02,04,10,12,3.20
2016,02,04,10,13,3.20
2016,02,04,10,14,3.20
2016,02,04,10,15,3.20
2016,02,04,10,17,3.20
2016,02,04,10,18,3.20
2016,02,04,10,19,4.80
2016,02,04,10,20,3.20
2016,02,04,10,21,4.80
2016,02,04,10,22,3.20
2016,02,04,10,23,3.20
2016,02,04,10,24,1.60
2016,02,04,10,25,4.80
2016,02,04,10,26,6.40
2016,02,04,10,27,6.40
2016,02,04,10,28,8.10
2016,02,04,10,29,8.10
2016,02,04,10,30,9.60
2016,02,04,10,31,8.10
2016,02,04,10,32,9.60
2016,02,04,10,33,8.10
2016,02,04,10,34,8.10
2016,02,04,10,35,8.10
2016,02,04,10,36,9.60
2016,02,04,10,37,8.10
2016,02,04,10,38,8.10
2016,02,04,10,39,6.40
2016,02,04,10,40,8.10
2016,02,04,10,41,6.40
2016,02,04,10,42,8.10
2016,02,04,10,43,8.10
2016,02,04,10,44,9.60
2016,02,04,10,45,8.10
2016,02,04,10,46,8.10
2016,02,04,10,47,9.60
2016,02,04,10,48,8.10
2016,02,04,10,49,11.30
2016,02,04,10,50,9.60
2016,02,04,10,51,8.10
2016,02,04,10,52,8.10
2016,02,04,10,53,9.60
2016,02,04,10,54,8.10
2016,02,04,10,55,8.10
2016,02,04,10,56,9.60
2016,02,04,10,57,11.30
2016,02,04,10,58,9.60
2016,02,04,10,59,11.30
2016,02,04,11,00,8.10
2016,02,04,11,01,9.60
2016,02,04,11,02,9.60
2016,02,04,11,03,14.50
2016,02,04,11,04,9.60
2016,02,04,11,05,9.60
2016,02,04,11,06,11.30
2016,02,04,11,07,11.30
2016,02,04,11,08,9.60
2016,02,04,11,09,11.30
2016,02,04,11,10,11.30
2016,02,04,11,11,9.60
2016,02,04,11,12,12.90
2016,02,04,11,13,11.30
2016,02,04,11,14,14.50
2016,02,04,11,15,14.50
2016,02,04,11,16,11.30
2016,02,04,11,17,9.60
2016,02,04,11,18,9.60
2016,02,04,11,19,11.30
2016,02,04,11,20,9.60
2016,02,04,11,21,9.60
2016,02,04,11,22,9.60
2016,02,04,11,23,9.60
2016,02,04,11,24,8.10
2016,02,04,11,25,8.10
2016,02,04,11,26,6.40
2016,02,04,11,27,8.10
2016,02,04,11,28,8.10
2016,02,04,11,29,9.60
2016,02,04,11,30,11.30
2016,02,04,11,31,9.60
2016,02,04,11,32,9.60
2016,02,04,11,33,8.10
2016,02,04,11,34,8.10
2016,02,04,11,35,9.60
2016,02,04,11,36,9.60
2016,02,04,11,37,9.60
2016,02,04,11,38,8.10
2016,02,04,11,39,8.10
2016,02,04,11,40,11.30
2016,02,04,11,41,9.60
2016,02,04,11,42,14.50
2016,02,04,11,43,11.30
2016,02,04,11,44,9.60
2016,02,04,11,45,9.60
2016,02,04,11,46,8.10
2016,02,04,11,47,8.10
2016,02,04,11,48,9.60
2016,02,04,11,49,9.60
2016,02,04,11,50,9.60
2016,02,04,11,51,9.60
2016,02,04,11,52,8.10
2016,02,04,11,53,11.30
2016,02,04,11,54,11.30
2016,02,04,11,55,14.50
2016,02,04,11,56,9.60
2016,02,04,11,57,9.60
2016,02,04,11,58,9.60
2016,02,04,11,59,9.60
2016,02,04,12,00,6.40
2016,02,04,12,01,8.10
2016,02,04,12,02,9.60
2016,02,04,12,03,8.10
2016,02,04,12,04,8.10
2016,02,04,12,05,8.10
2016,02,04,12,06,14.50
2016,02,04,12,07,11.30
2016,02,04,12,08,9.60
2016,02,04,12,09,11.30
2016,02,04,12,10,9.60
2016,02,04,12,11,11.30
2016,02,04,12,12,9.60
2016,02,04,12,13,8.10
2016,02,04,12,14,8.10
2016,02,04,12,15,6.40
2016,02,04,12,16,8.10
2016,02,04,12,17,6.40
2016,02,04,12,18,8.10
2016,02,04,12,19,9.60
2016,02,04,12,20,8.10
2016,02,04,12,21,8.10
2016,02,04,12,22,8.10
2016,02,04,12,23,8.10
2016,02,04,12,24,8.10
2016,02,04,12,25,9.60
2016,02,04,12,26,9.60
2016,02,04,12,27,11.30
2016,02,04,12,28,9.60
2016,02,04,12,29,8.10
2016,02,04,12,30,8.10
2016,02,04,12,31,8.10
2016,02,04,12,32,6.40
2016,02,04,12,33,4.80
2016,02,04,12,34,8.10
2016,02,04,12,35,11.30
2016,02,04,12,36,6.40
2016,02,04,12,37,6.40
2016,02,04,12,38,9.60
2016,02,04,12,39,9.60
2016,02,04,12,40,8.10
2016,02,04,12,41,8.10
2016,02,04,12,42,8.10
2016,02,04,12,43,6.40
2016,02,04,12,44,6.40
2016,02,04,12,45,6.40
2016,02,04,12,46,11.30
2016,02,04,12,47,8.10
2016,02,04,12,48,9.60
2016,02,04,12,49,8.10
2016,02,04,12,50,11.30
2016,02,04,12,51,9.60
2016,02,04,12,52,9.60
2016,02,04,12,53,11.30
2016,02,04,12,54,9.60
2016,02,04,12,55,11.30
2016,02,04,12,56,9.60
2016,02,04,12,57,9.60
2016,02,04,12,58,6.40
2016,02,04,12,59,6.40
2016,02,04,13,00,4.80
2016,02,04,13,01,4.80
2016,02,04,13,02,6.40
2016,02,04,13,03,6.40
2016,02,04,13,04,6.40
2016,02,04,13,05,6.40
2016,02,04,13,06,8.10
2016,02,04,13,07,6.40
2016,02,04,13,08,6.40
2016,02,04,13,09,6.40
2016,02,04,13,10,9.60
2016,02,04,13,11,8.10
2016,02,04,13,12,9.60
2016,02,04,13,13,11.30
2016,02,04,13,14,11.30
2016,02,04,13,15,9.60
2016,02,04,13,16,9.60
2016,02,04,13,17,9.60
2016,02,04,13,18,9.60
2016,02,04,13,19,11.30
2016,02,04,13,20,11.30
2016,02,04,13,21,11.30
2016,02,04,13,22,9.60
2016,02,04,13,23,11.30
2016,02,04,13,24,11.30
2016,02,04,13,25,11.30
2016,02,04,13,26,11.30
2016,02,04,13,27,12.90
2016,02,04,13,28,11.30
2016,02,04,13,29,14.50
2016,02,04,13,30,11.30
2016,02,04,13,31,11.30
2016,02,04,13,32,9.60
2016,02,04,13,33,11.30
2016,02,04,13,34,8.10
2016,02,04,13,35,9.60
2016,02,04,13,36,11.30
2016,02,04,13,37,9.60
2016,02,04,13,38,9.60
2016,02,04,13,39,6.40
2016,02,04,13,40,8.10
2016,02,04,13,41,8.10
2016,02,04,13,42,9.60
2016,02,04,13,43,9.60
2016,02,04,13,44,9.60
2016,02,04,13,45,9.60
2016,02,04,13,46,11.30
2016,02,04,13,47,14.50
2016,02,04,13,48,9.60
2016,02,04,13,49,8.10
2016,02,04,13,50,8.10
2016,02,04,13,51,8.10
2016,02,04,13,52,8.10
2016,02,04,13,53,8.10
2016,02,04,13,54,11.30
2016,02,04,13,55,14.50
2016,02,04,13,56,9.60
2016,02,04,13,57,9.60
2016,02,04,13,58,9.60
2016,02,04,13,59,12.90
2016,02,04,14,00,14.50
2016,02,04,14,01,11.30
2016,02,04,14,02,9.60
2016,02,04,14,03,11.30
2016,02,04,14,04,11.30
2016,02,04,14,05,9.60
2016,02,04,14,06,9.60
2016,02,04,14,07,9.60
2016,02,04,14,08,6.40
2016,02,04,14,09,9.60
2016,02,04,14,10,16.10
2016,02,04,14,11,16.10
2016,02,04,14,12,14.50
2016,02,04,14,13,11.30
2016,02,04,14,14,11.30
2016,02,04,14,15,12.90
2016,02,04,14,16,11.30
2016,02,04,14,17,11.30
2016,02,04,14,18,9.60
2016,02,04,14,19,9.60
2016,02,04,14,20,16.10
2016,02,04,14,21,16.10
2016,02,04,14,22,14.50
2016,02,04,14,23,9.60
2016,02,04,14,24,14.50
2016,02,04,14,25,16.10
2016,02,04,14,26,8.10
2016,02,04,14,27,12.90
2016,02,04,14,28,11.30
2016,02,04,14,29,11.30
2016,02,04,14,30,16.10
2016,02,04,14,31,12.90
2016,02,04,14,32,16.10
2016,02,04,14,33,9.60
2016,02,04,14,34,16.10
2016,02,04,14,35,11.30
2016,02,04,14,36,9.60
2016,02,04,14,37,11.30
2016,02,04,14,38,9.60
2016,02,04,14,39,6.40
2016,02,04,14,40,16.10
2016,02,04,14,41,14.50
2016,02,04,14,42,14.50
2016,02,04,14,43,16.10
2016,02,04,14,44,9.60
2016,02,04,14,45,8.10
2016,02,04,14,46,9.60
2016,02,04,14,47,9.60
2016,02,04,14,48,9.60
2016,02,04,14,49,11.30
2016,02,04,14,50,8.10
2016,02,04,14,51,8.10
2016,02,04,14,52,6.40
2016,02,04,14,53,11.30
2016,02,04,14,54,12.90
2016,02,04,14,55,11.30
2016,02,04,14,56,9.60
2016,02,04,14,57,11.30
2016,02,04,14,58,8.10
2016,02,04,14,59,9.60
2016,02,04,15,00,8.10
2016,02,04,15,01,8.10
2016,02,04,15,02,9.60
2016,02,04,15,03,9.60
2016,02,04,15,04,9.60
2016,02,04,15,05,9.60
2016,02,04,15,06,9.60
2016,02,04,15,07,11.30
2016,02,04,15,08,11.30
2016,02,04,15,09,11.30
2016,02,04,15,10,9.60
2016,02,04,15,11,9.60
2016,02,04,15,12,11.30
2016,02,04,15,13,14.50
2016,02,04,15,14,9.60
2016,02,04,15,15,11.30
2016,02,04,15,16,11.30
2016,02,04,15,17,11.30
2016,02,04,15,18,12.90
2016,02,04,15,19,16.10
2016,02,04,15,20,16.10
2016,02,04,15,21,16.10
2016,02,04,15,22,14.50
2016,02,04,15,23,8.10
2016,02,04,15,24,8.10
2016,02,04,15,25,6.40
2016,02,04,15,26,11.30
2016,02,04,15,27,9.60
2016,02,04,15,28,9.60
2016,02,04,15,29,11.30
2016,02,04,15,30,11.30
2016,02,04,15,31,9.60
2016,02,04,15,32,9.60
2016,02,04,15,33,9.60
2016,02,04,15,34,8.10
2016,02,04,15,35,8.10
2016,02,04,15,36,8.10
2016,02,04,15,37,8.10
2016,02,04,15,38,11.30
2016,02,04,15,39,12.90
2016,02,04,15,40,11.30
2016,02,04,15,41,11.30
2016,02,04,15,42,9.60
2016,02,04,15,43,8.10
2016,02,04,15,44,9.60
2016,02,04,15,45,8.10
2016,02,04,15,46,9.60
2016,02,04,15,47,11.30
2016,02,04,15,48,9.60
2016,02,04,15,49,4.80
2016,02,04,15,50,8.10
2016,02,04,15,51,11.30
2016,02,04,15,52,8.10
2016,02,04,15,53,9.60
2016,02,04,15,54,16.10
2016,02,04,15,55,9.60
2016,02,04,15,56,14.50
2016,02,04,15,57,12.90
2016,02,04,15,58,6.40
2016,02,04,15,59,11.30
2016,02,04,16,00,14.50
2016,02,04,16,01,8.10
2016,02,04,16,02,16.10
2016,02,04,16,03,12.90
2016,02,04,16,04,9.60
2016,02,04,16,05,8.10
2016,02,04,16,06,17.70
2016,02,04,16,07,16.10
2016,02,04,16,08,14.50
2016,02,04,16,09,14.50
2016,02,04,16,10,19.30
2016,02,04,16,11,16.10
2016,02,04,16,12,17.70
2016,02,04,16,13,19.30
2016,02,04,16,14,19.30
2016,02,04,16,15,16.10
2016,02,04,16,16,19.30
2016,02,04,16,17,22.50
2016,02,04,16,18,20.90
2016,02,04,16,19,17.70
2016,02,04,16,20,20.90
2016,02,04,16,21,19.30
2016,02,04,16,22,20.90
2016,02,04,16,23,24.20
2016,02,04,16,24,27.40
2016,02,04,16,25,22.50
2016,02,04,16,26,24.20
2016,02,04,16,27,25.70
2016,02,04,16,28,30.60
2016,02,04,16,29,27.40
2016,02,04,16,30,25.70
2016,02,04,16,31,22.50
2016,02,04,16,32,22.50
2016,02,04,16,33,20.90
2016,02,04,16,34,25.70
2016,02,04,16,35,30.60
2016,02,04,16,36,27.40
2016,02,04,16,37,27.40
2016,02,04,16,38,32.20
2016,02,04,16,39,30.60
2016,02,04,16,40,32.20
2016,02,04,16,41,24.20
2016,02,04,16,42,24.20
2016,02,04,16,43,22.50
2016,02,04,16,44,24.20
2016,02,04,16,45,22.50
2016,02,04,16,46,20.90
2016,02,04,16,47,25.70
2016,02,04,16,48,22.50
2016,02,04,16,49,20.90
2016,02,04,16,50,20.90
2016,02,04,16,51,22.50
2016,02,04,16,52,20.90
2016,02,04,16,53,22.50
2016,02,04,16,54,19.30
2016,02,04,16,55,16.10
2016,02,04,16,56,20.90
2016,02,04,16,57,20.90
2016,02,04,16,58,17.70
2016,02,04,16,59,19.30
2016,02,04,17,00,16.10
2016,02,04,17,01,14.50
2016,02,04,17,02,14.50
2016,02,04,17,03,11.30
2016,02,04,17,04,8.10
2016,02,04,17,05,11.30
2016,02,04,17,06,8.10
2016,02,04,17,07,11.30
2016,02,04,17,08,17.70
2016,02,04,17,09,16.10
2016,02,04,17,10,11.30
2016,02,04,17,11,9.60
2016,02,04,17,12,17.70
2016,02,04,17,13,19.30
2016,02,04,17,14,19.30
2016,02,04,17,15,12.90
2016,02,04,17,16,16.10
2016,02,04,17,17,11.30
2016,02,04,17,18,14.50
2016,02,04,17,19,20.90
2016,02,04,17,20,20.90
2016,02,04,17,21,19.30
2016,02,04,17,22,19.30
2016,02,04,17,23,19.30
2016,02,04,17,24,20.90
2016,02,04,17,25,20.90
2016,02,04,17,26,16.10
2016,02,04,17,27,19.30
2016,02,04,17,28,16.10
2016,02,04,17,29,20.90
2016,02,04,17,30,22.50
2016,02,04,17,31,24.20
2016,02,04,17,32,20.90
2016,02,04,17,33,17.70
2016,02,04,17,34,16.10
2016,02,04,17,35,17.70
2016,02,04,17,36,20.90
2016,02,04,17,37,19.30
2016,02,04,17,38,17.70
2016,02,04,17,39,16.10
2016,02,04,17,40,19.30
2016,02,04,17,41,25.70
2016,02,04,17,42,17.70
2016,02,04,17,43,16.10
2016,02,04,17,44,16.10
2016,02,04,17,45,14.50
2016,02,04,17,46,19.30
2016,02,04,17,47,17.70
2016,02,04,17,48,17.70
2016,02,04,17,49,20.90
2016,02,04,17,50,20.90
2016,02,04,17,51,17.70
2016,02,04,17,52,16.10
2016,02,04,17,53,16.10
2016,02,04,17,54,12.90
2016,02,04,17,55,11.30
2016,02,04,17,56,17.70
2016,02,04,17,57,19.30
2016,02,04,17,58,16.10
2016,02,04,17,59,20.90
2016,02,04,18,00,25.70
2016,02,04,18,01,20.90
2016,02,04,18,02,19.30
2016,02,04,18,03,17.70
2016,02,04,18,04,17.70
2016,02,04,18,05,19.30
2016,02,04,18,06,22.50
2016,02,04,18,07,20.90
2016,02,04,18,08,20.90
2016,02,04,18,09,17.70
2016,02,04,18,10,17.70
2016,02,04,18,11,17.70
2016,02,04,18,12,11.30
2016,02,04,18,13,16.10
2016,02,04,18,14,17.70
2016,02,04,18,15,17.70
2016,02,04,18,16,19.30
2016,02,04,18,17,20.90
2016,02,04,18,18,24.20
2016,02,04,18,19,19.30
2016,02,04,18,20,24.20
2016,02,04,18,21,19.30
2016,02,04,18,22,19.30
2016,02,04,18,23,22.50
2016,02,04,18,24,24.20
2016,02,04,18,25,37.00
2016,02,04,18,26,30.60
2016,02,04,18,27,32.20
2016,02,04,18,28,33.80
2016,02,04,18,29,35.40
2016,02,04,18,30,33.80
2016,02,04,18,31,24.20
2016,02,04,18,32,22.50
2016,02,04,18,33,27.40
2016,02,04,18,34,19.30
2016,02,04,18,35,22.50
2016,02,04,18,36,27.40
2016,02,04,18,37,32.20
2016,02,04,18,38,20.90
2016,02,04,18,39,22.50
2016,02,04,18,40,17.70
2016,02,04,18,41,24.20
2016,02,04,18,42,24.20
2016,02,04,18,43,27.40
2016,02,04,18,44,27.40
2016,02,04,18,45,29.00
2016,02,04,18,46,29.00
2016,02,04,18,47,30.60
2016,02,04,18,48,37.00
2016,02,04,18,49,32.20
2016,02,04,18,50,32.20
2016,02,04,18,51,30.60
2016,02,04,18,52,24.20
2016,02,04,18,53,20.90
2016,02,04,18,54,16.10
2016,02,04,18,55,22.50
2016,02,04,18,56,19.30
2016,02,04,18,57,27.40
2016,02,04,18,58,20.90
2016,02,04,18,59,22.50
2016,02,04,19,00,24.20
2016,02,04,19,01,20.90
2016,02,04,19,02,27.40
2016,02,04,19,03,29.00
2016,02,04,19,04,20.90
2016,02,04,19,05,27.40
2016,02,04,19,06,25.70
2016,02,04,19,07,25.70
2016,02,04,19,08,30.60
2016,02,04,19,09,27.40
2016,02,04,19,10,25.70
2016,02,04,19,11,24.20
2016,02,04,19,12,22.50
2016,02,04,19,13,30.60
2016,02,04,19,14,25.70
2016,02,04,19,15,20.90
2016,02,04,19,16,25.70
2016,02,04,19,17,24.20
2016,02,04,19,18,30.60
2016,02,04,19,19,30.60
2016,02,04,19,20,27.40
2016,02,04,19,21,30.60
2016,02,04,19,22,24.20
2016,02,04,19,23,29.00
2016,02,04,19,24,27.40
2016,02,04,19,25,29.00
2016,02,04,19,26,30.60
2016,02,04,19,27,33.80
2016,02,04,19,28,32.20
2016,02,04,19,29,24.20
2016,02,04,19,30,30.60
2016,02,04,19,31,27.40
2016,02,04,19,32,27.40
2016,02,04,19,33,32.20
2016,02,04,19,34,30.60
2016,02,04,19,35,27.40
2016,02,04,19,36,30.60
2016,02,04,19,37,22.50
2016,02,04,19,38,22.50
2016,02,04,19,39,19.30
2016,02,04,19,40,25.70
2016,02,04,19,41,37.00
2016,02,04,19,42,29.00
2016,02,04,19,43,25.70
2016,02,04,19,44,25.70
2016,02,04,19,45,32.20
2016,02,04,19,46,30.60
2016,02,04,19,47,37.00
2016,02,04,19,48,33.80
2016,02,04,19,49,29.00
2016,02,04,19,50,30.60
2016,02,04,19,51,32.20
2016,02,04,19,52,33.80
2016,02,04,19,53,35.40
2016,02,04,19,54,32.20
2016,02,04,19,55,27.40
2016,02,04,19,56,32.20
2016,02,04,19,57,32.20
2016,02,04,19,58,29.00